Other Public Products
Issued by NWS Charleston, SC

Current Version | Previous Version | Graphics & Text | Print | Product List | Glossary On
Versions: 1 2 3 4 5 6 7 8 9 10 11 12 13 14 15 16 17 18 19 20 21 22 23 24 25 26 27 28 29 30 31 32 33 34 35 36 37 38 39 40 41 42 43 44 45 46 47 48 49 50
000
FPUS82 KCHS 181927
OPUCHS

TEST...KCHS/KSAV Gateway Observations...TEST
National Weather Service Charleston SC
200 PM EST WED JAN 18 2017

NOTE: "fair" indicates few or no clouds below 12,000 feet with no
significant weather and/or obstructions to visibility.

SCZ050-WAZ558-NCZ071-TXZ119-213-PAZ071-DCZ001-FLZ074-172-MI076-
NYZ176-178-MAZ016-IL014-TNZ027-NJZ106-GAZ044-MD014-182000-
...Gateway Observations for Charleston International...

CITY           SKY/WX    TMP DP  RH WIND       PRES   REMARKS
Chas Airport   PTSUNNY   76  59  55 W17G28    30.00F
Seattle        CLOUDY    48  47  96 SE12      29.37R
Charlotte      MOSUNNY   74  32  21 NW12G21   30.00R
Dallas DFW     CLOUDY    50  48  93 NW9       30.06F
Dallas Love    CLOUDY    50  47  89 NW9       30.08F
Philladelphia  CLOUDY    48  41  76 N9        29.93S
Wash National  PTSUNNY   58  40  51 NW18G28   29.95R
Baltimore      CLOUDY    55  42  61 NW21G28   29.93S
Miami          PTSUNNY   81  62  52 SE7       30.11F
Detroit        CLOUDY    41  37  86 W13       30.05F
Newark         CLOUDY    42  38  85 N9        29.94R
Laguardia      CLOUDY    44  38  79 N8        29.94R
J F K          CLOUDY    42  36  79 N12       29.95R
Boston Logan   LGT RAIN  39  38  96 NE15      29.97R FOG     WCI  31
Ft. Lauderdale PTSUNNY   78  65  63 SE13      30.10F
Chicago O`Hare CLOUDY    34  32  92 SW12      30.07F FOG     WCI  25
Chicago Midway CLOUDY    34  32  92 SW16      30.08F WCI  24
Houston Bush   TSTM      68  65  90 NW10      29.96F
Houston Hobby  TSTM      74  69  85 S10G20    29.94F
Nashville      CLOUDY    49  39  68 E6        30.20F
Atlanta        PTSUNNY   67  56  67 NW17G23   30.10F

$$

GAZ044-118-TXZ119-213-NCZ071-DCZ001-MDZ014-506-PAZ021-071-NJZ106-
NYZ176-178-MAZ106-OHZ011-021-055-MIZ076-KYZ091-ILZ014-INZ047-
MNZ060-182000-
...Gateway Observations for Savannah International...

CITY           SKY/WX    TMP DP  RH WIND       PRES   REMARKS
Savannah Arpt  PTSUNNY   76  59  55 W18       30.07F
Atlanta        PTSUNNY   67  56  67 NW17G23   30.10F
Charlotte      MOSUNNY   74  32  21 NW12G21   30.00R
Dallas DFW     CLOUDY    50  48  93 NW9       30.06F
Houston Bush   TSTM      68  65  90 NW10      29.96F
Wash National  PTSUNNY   58  40  51 NW18G28   29.95R
Wash Dulles    PTSUNNY   54  37  52 NW17G26   29.96R
Baltimore      CLOUDY    55  42  61 NW21G28   29.93S
Philadelphia   CLOUDY    48  41  76 N9        29.93S
Newark         CLOUDY    42  38  85 N9        29.94R
Laguardia      CLOUDY    44  38  79 N8        29.94R
J F K          CLOUDY    42  36  79 N12       29.95R
Boston         LGT RAIN  39  38  96 NE15      29.97R FOG     WCI  31
Pittsburg      CLOUDY    40  35  83 W12       30.07S WCI  33
Akron          CLOUDY    38  34  85 W10       30.08S FOG     WCI  31
Cleveland      CLOUDY    39  35  86 W16       30.11S FOG     WCI  30
Cincinnati     CLOUDY    41  36  82 W9        30.16F
Columbus         N/A     38  35  87 W12       30.15S WCI  31
Detroit        CLOUDY    41  37  86 W13       30.05F
Chicago O`Hare CLOUDY    34  32  92 SW12      30.07F FOG     WCI  25
Minneapolis    SUNNY     40  30  67 SW13G22   29.87F WCI  32
Indianapolis   CLOUDY    38  35  89 SW10      30.17F WCI  31

$$




USA.gov is the U.S. government's official web portal to all federal, state and local government web resources and services.